EHI
0 0 0 0 0 0 0 0 0 0 0 0 0 0 0 0 0 0 0 4 10 14 16 19 20 17 16 17 17 16 16 16 15 14 12 9 8 10 10 6 3 1 0 0 0 1 2 1 0
0 0 0 0 0 0 0 0 0 0 0 0 0 0 0 0 0 0 1 6 13 16 17 19 20 18 17 18 18 17 15 15 14 14 12 10 9 10 9 5 2 1 0 0 0 1 2 1 1
0 0 0 0 0 0 0 0 0 0 0 1 1 1 1 0 0 0 3 10 16 18 18 18 19 19 20 20 19 16 13 12 13 13 12 10 9 8 6 3 1 0 0 1 1 1 1 1 1
0 0 0 0 0 0 0 0 0 0 0 1 2 1 0 0 1 2 6 12 17 17 17 17 18 20 22 22 20 16 13 11 11 12 11 10 9 6 3 1 0 0 0 1 1 0 1 1 2
0 0 0 0 0 0 0 0 0 0 0 1 2 1 0 1 2 4 8 12 15 15 14 15 17 18 21 22 20 17 15 14 12 11 9 8 8 7 3 1 0 1 1 1 1 0 1 2 2
0 0 0 0 0 0 0 0 0 0 0 1 3 3 2 2 4 6 8 11 13 13 11 11 13 15 19 21 20 18 17 16 14 11 7 5 6 6 4 2 1 2 2 2 1 1 2 3 3
0 0 0 0 0 0 0 0 0 0 0 2 4 5 6 6 6 9 11 13 13 12 10 9 10 12 15 17 18 17 17 17 15 12 7 5 4 4 4 3 3 3 3 2 1 2 3 4 4
0 0 0 0 0 0 0 0 0 0 1 2 3 4 7 11 13 16 18 17 14 12 11 10 8 8 10 12 13 14 14 14 14 11 8 5 4 3 3 3 3 3 3 3 3 4 5 4 4
0 0 0 0 0 1 1 1 0 0 1 2 2 4 11 20 23 24 24 21 16 13 12 11 9 7 7 8 9 10 10 10 10 8 7 5 3 2 2 3 3 3 3 3 3 4 5 4 3
0 0 0 0 1 2 2 1 0 0 1 2 4 11 23 29 28 27 25 21 17 14 13 12 11 8 6 6 7 7 7 6 6 6 5 3 2 1 1 1 2 2 2 2 3 3 3 3 1
0 0 0 1 2 2 2 1 0 0 0 1 7 21 32 32 26 22 21 19 16 14 13 13 11 8 6 5 4 4 4 4 4 5 5 3 1 0 0 0 1 1 1 1 1 2 2 1 1
0 0 0 1 1 1 1 1 1 0 1 4 12 26 33 30 23 17 15 14 13 13 13 12 10 7 5 4 3 3 3 3 3 4 4 4 2 0 0 0 0 0 0 0 0 0 0 0 0
0 0 0 0 0 0 0 0 0 0 2 8 16 25 30 28 21 16 12 11 11 12 12 11 9 7 4 3 3 4 3 2 1 2 3 3 1 0 0 0 0 0 0 0 0 0 0 0 0
0 0 0 0 0 0 0 0 0 0 4 10 16 20 24 24 20 15 12 11 11 11 11 10 9 6 4 4 4 4 3 2 0 1 1 1 1 0 0 0 0 0 0 0 0 0 0 0 0
0 0 0 0 0 0 0 0 0 1 5 11 13 13 16 18 18 16 14 12 10 10 9 9 8 7 6 5 5 5 4 3 1 1 1 1 1 1 0 0 0 0 1 1 1 1 1 0 0
0 0 0 0 0 0 0 0 0 2 7 12 12 10 10 13 16 18 15 12 9 7 7 7 8 9 8 7 6 5 4 3 3 2 2 1 2 2 1 0 1 1 2 2 2 2 1 0 0
0 0 0 0 0 0 0 1 1 4 9 14 14 12 10 12 17 19 16 12 9 6 6 6 8 9 9 9 7 6 3 2 2 2 2 1 2 3 3 2 1 1 1 2 2 1 1 0 0
0 0 0 0 0 0 0 2 3 4 8 13 15 13 10 12 17 19 18 14 10 8 7 7 7 8 9 9 8 5 2 1 1 1 1 1 2 4 4 3 2 1 0 1 1 0 0 0 0
0 0 0 0 0 0 2 3 4 4 6 9 12 13 11 11 14 18 19 16 12 10 10 8 7 7 8 7 6 4 3 1 0 1 2 3 3 3 4 4 3 1 1 1 0 0 0 0 0
0 0 0 0 1 2 3 4 4 4 4 6 10 12 11 10 12 16 19 18 14 12 11 9 7 6 7 7 5 5 4 2 1 1 3 4 4 3 3 4 3 3 2 2 2 1 1 0 0
0 0 0 0 1 2 3 3 3 3 4 5 6 8 8 9 11 15 19 19 15 12 11 9 8 8 9 8 8 7 6 4 2 2 3 3 4 4 4 4 3 3 3 3 2 2 1 0 0
0 0 0 0 1 1 1 1 2 4 5 4 3 3 5 8 11 14 18 19 16 13 12 11 10 10 11 12 12 11 8 6 5 4 4 4 3 4 5 5 4 3 3 3 2 1 0 0 0
0 0 0 0 0 0 0 0 1 3 4 3 1 3 5 8 12 15 17 17 16 14 13 12 10 10 13 15 14 12 9 7 6 6 6 5 5 4 4 5 5 4 3 3 2 1 0 0 0
0 0 0 0 0 0 0 0 1 3 4 2 1 3 6 9 13 16 17 18 16 14 12 10 9 10 13 16 15 12 8 7 7 7 7 7 7 6 5 5 4 4 4 4 4 3 1 0 1
0 0 0 0 0 0 0 0 1 2 3 2 1 3 6 10 14 17 19 18 16 13 10 9 8 9 13 15 13 9 7 6 8 9 9 9 9 9 8 6 5 5 6 6 6 4 2 1 2
0 0 0 0 0 0 0 0 0 1 2 2 1 3 7 11 16 19 21 19 16 14 11 9 8 9 12 12 9 7 6 6 7 9 9 10 10 10 9 9 7 7 7 7 7 6 4 3 3
0 0 0 0 0 0 0 0 0 0 0 1 1 3 6 11 15 19 19 18 16 13 11 9 8 9 10 10 8 7 6 6 7 7 8 9 9 10 9 8 7 6 6 7 7 6 5 4 3
0 0 0 0 0 0 0 0 0 0 1 1 1 2 6 10 13 15 16 16 14 11 9 9 8 9 9 9 7 7 6 7 7 6 6 7 9 9 9 7 5 4 4 5 6 5 4 3 3
0 0 0 0 0 0 0 0 0 0 1 1 1 2 5 9 10 12 13 13 11 9 7 8 9 9 9 9 8 7 7 7 8 6 5 5 7 8 9 7 4 3 4 4 4 4 3 3 3
0 0 0 0 0 0 0 0 0 0 0 1 0 2 5 8 9 10 11 11 10 7 6 7 9 9 10 10 9 7 7 8 9 6 4 4 5 7 8 6 4 3 4 4 4 3 3 3 3
Wind_Speed
4 3 2 2 5 5 2 3 2 3 2 1 2 3 4 3 3 2 2 8 10 10 8 10 12 12 11 11 11 10 10 11 11 11 11 10 10 10 10 10 10 9 9 9 9 9 9 9 9
3 2 1 4 5 3 3 3 2 2 2 1 3 3 4 2 2 5 4 7 11 10 7 8 12 12 11 11 11 10 10 11 11 11 11 10 9 9 9 9 9 8 8 9 9 9 9 9 8
3 2 3 4 3 2 3 3 2 3 1 0 2 3 3 2 3 5 5 11 10 9 7 8 13 12 11 11 11 10 11 11 11 11 10 10 9 8 8 8 8 8 7 8 8 8 8 7 7
2 3 4 5 0 4 4 3 2 2 2 1 2 3 3 2 3 5 11 12 10 8 6 8 13 12 11 11 11 11 11 11 10 10 10 9 8 8 7 7 7 7 7 7 7 7 7 6 6
3 4 5 3 3 4 3 3 2 1 0 1 3 3 2 4 6 11 12 11 10 7 6 7 11 12 11 11 10 10 10 10 9 9 9 8 8 7 6 6 6 6 7 7 7 6 6 5 5
4 5 4 2 5 5 3 2 1 0 0 1 3 3 2 3 7 10 10 9 8 8 6 6 11 12 11 11 10 10 9 9 8 8 8 7 7 6 6 5 5 5 5 6 6 6 5 5 5
4 4 2 2 3 4 3 1 1 0 1 1 4 4 1 3 5 9 9 8 7 6 6 5 5 8 10 10 10 9 8 8 7 7 7 6 6 5 5 5 4 4 4 5 5 5 5 5 5
5 5 1 2 2 4 2 2 1 0 1 1 4 6 4 5 8 9 9 7 6 5 4 4 4 4 4 5 9 9 8 7 6 6 6 5 5 4 4 3 4 4 4 4 4 5 5 5 5
4 5 2 4 4 4 2 2 2 1 1 2 2 2 5 14 13 11 9 6 5 6 4 4 3 3 3 3 5 6 6 6 5 4 4 3 2 2 2 2 3 4 4 4 4 4 5 4 4
4 3 7 5 4 3 3 2 2 1 1 1 4 5 12 16 13 12 11 10 9 8 6 4 4 4 3 3 3 2 2 2 2 2 2 2 2 1 2 1 3 3 3 3 4 4 4 3 2
4 6 4 4 4 3 2 3 1 2 3 4 5 10 14 13 11 11 10 9 9 8 7 6 5 4 4 2 2 1 1 1 1 2 2 2 1 1 2 1 2 2 2 2 2 3 2 2 1
3 4 3 4 2 2 3 2 1 3 6 3 8 14 15 14 12 11 10 9 7 7 7 6 6 4 3 2 2 2 2 1 1 1 2 2 1 1 1 1 1 1 1 1 1 1 2 1 1
3 4 3 5 4 3 1 2 2 3 3 4 9 13 14 13 10 8 6 6 6 7 7 6 6 6 4 3 2 3 2 2 2 1 1 2 1 1 1 1 1 1 1 1 1 1 1 1 1
3 4 4 4 2 1 2 2 1 3 1 7 10 11 11 11 10 8 7 7 7 7 7 6 6 5 5 3 3 2 2 2 2 1 2 2 2 1 1 0 1 1 0 0 0 0 1 1 1
1 2 5 3 1 1 2 3 2 3 4 7 7 8 9 8 8 9 10 9 8 7 6 6 7 5 5 4 3 2 2 2 2 1 1 2 2 2 2 1 1 0 1 1 1 1 1 1 1
2 2 3 5 1 1 4 4 5 1 6 6 6 7 7 7 8 8 8 8 8 7 7 6 6 6 5 4 3 2 2 2 2 1 1 1 2 2 2 2 1 1 1 1 1 1 1 1 1
3 0 3 5 2 1 3 3 3 1 5 5 5 5 6 6 5 5 7 7 7 8 7 7 5 6 5 4 3 3 3 2 1 1 1 1 1 2 2 1 1 1 1 1 1 1 1 1 1
3 2 2 4 3 2 0 3 5 1 3 4 4 5 5 6 6 5 5 6 6 6 6 6 5 5 4 3 3 3 3 2 1 1 1 1 1 2 2 2 1 2 1 1 1 1 1 1 1
4 3 4 6 4 1 1 3 4 1 1 2 3 4 4 4 3 4 4 5 6 6 6 6 5 5 5 4 3 3 2 2 1 1 1 2 2 2 2 2 1 2 1 1 2 1 1 1 1
4 3 4 5 2 2 1 2 2 1 3 3 4 4 5 4 2 3 4 5 6 7 6 6 6 5 5 4 3 2 3 2 1 1 1 1 2 2 2 2 2 2 1 1 1 2 1 1 1
5 6 5 4 3 2 1 3 2 2 1 1 2 3 4 6 6 5 5 5 6 6 7 6 6 5 5 4 3 3 3 2 1 1 0 0 1 1 2 2 2 2 2 2 1 2 2 2 1
6 6 6 4 1 2 1 2 5 2 1 1 2 3 4 4 4 5 5 5 5 6 5 5 5 4 4 5 5 5 4 2 2 1 1 0 0 1 1 2 2 2 2 2 1 2 2 3 2
6 4 4 3 3 1 1 3 6 1 3 4 3 4 4 5 6 5 5 5 5 5 5 5 5 5 4 5 5 5 3 2 1 1 1 1 0 0 1 1 2 2 1 2 1 2 2 2 2
4 3 3 4 4 2 5 5 6 4 6 4 4 5 5 5 5 4 4 4 3 4 5 5 5 4 4 5 5 5 5 4 3 2 2 1 0 0 0 1 1 1 1 1 2 2 2 2 2
4 5 3 3 1 6 3 3 7 5 4 6 6 5 4 5 5 5 5 4 4 4 4 5 5 4 4 4 4 4 5 5 4 3 3 2 1 1 1 1 1 1 1 2 2 2 2 2 2
4 8 7 5 5 4 1 5 5 2 1 2 2 3 3 4 4 5 5 5 5 5 4 5 5 4 4 4 4 3 4 3 2 3 2 2 2 2 2 2 2 2 2 2 2 2 2 2 2
4 4 5 6 2 1 4 3 4 2 2 1 0 1 3 4 4 4 4 4 4 5 4 5 5 4 4 4 3 3 3 3 2 2 2 1 1 1 2 2 2 2 2 2 2 2 2 2 2
4 6 5 5 5 4 4 3 3 3 3 2 1 2 3 3 3 4 4 4 4 4 4 4 5 4 4 3 3 3 2 2 2 2 2 2 2 1 2 2 2 2 2 2 2 2 2 2 2
2 3 4 4 4 6 3 5 3 6 5 4 3 2 4 5 4 4 4 4 4 4 4 5 5 4 3 3 2 2 2 2 2 2 2 2 2 2 2 3 2 2 2 2 2 2 2 2 2
3 3 5 4 4 4 4 6 3 1 1 2 2 2 2 3 3 3 3 3 4 4 4 4 4 4 4 3 2 2 2 2 2 2 2 1 2 2 3 2 2 2 2 2 3 3 3 3 3
Wind_Direction
140 130 130 90 54 47 356 288 260 324 324 315 120 118 130 140 162 179 132 137 134 141 149 154 153 147 141 136 131 126 124 123 120 117 115 115 116 114 116 117 119 120 119 119 118 118 118 121 125
135 146 82 62 74 48 306 284 295 284 214 112 76 87 86 81 84 117 131 140 137 141 144 150 151 147 143 138 133 128 125 126 123 118 116 116 115 113 113 114 117 119 119 121 118 116 114 119 125
164 161 84 70 88 167 267 280 280 311 259 105 62 62 91 132 139 152 150 138 132 136 137 152 151 149 145 141 135 130 124 124 122 120 117 115 115 114 112 115 117 118 121 123 120 119 118 120 121
114 53 54 68 306 229 230 269 291 316 333 52 100 79 72 46 144 140 134 136 133 133 137 152 151 150 147 143 138 134 131 128 124 122 118 116 114 113 112 115 117 118 121 123 124 124 123 124 125
64 72 53 22 287 267 251 262 254 292 300 86 105 107 62 19 94 121 133 137 137 137 140 151 152 151 149 145 142 139 135 131 128 123 121 119 117 115 117 120 120 121 123 127 126 122 123 122 122
57 65 76 297 288 290 286 262 304 10 345 112 108 103 51 74 113 130 133 132 136 140 139 148 155 153 151 147 144 139 137 134 131 128 126 123 121 118 119 124 125 124 124 127 126 124 126 121 115
104 98 152 233 285 302 297 332 54 351 331 179 127 111 91 114 124 128 123 120 123 131 133 138 148 154 154 150 147 143 138 135 134 131 129 129 129 127 126 126 125 122 120 124 126 126 125 119 115
124 105 141 240 252 272 289 340 344 221 253 111 117 141 184 161 132 117 111 111 122 129 135 135 132 135 145 151 154 149 144 139 136 132 130 131 132 130 128 120 124 127 126 123 120 122 120 117 118
94 86 202 221 215 254 293 342 331 328 97 61 75 139 153 135 132 123 120 124 142 152 151 144 137 133 130 139 157 150 147 138 131 125 123 108 82 84 100 119 125 123 121 117 109 107 112 111 108
102 155 222 217 206 237 289 282 286 8 7 42 51 76 122 136 144 146 153 160 167 171 169 159 153 145 140 155 133 121 127 120 114 103 96 80 73 73 89 86 108 116 111 107 102 96 98 94 82
159 199 235 255 232 232 258 278 251 156 254 218 174 146 144 147 154 160 166 171 174 171 170 170 165 158 155 144 131 121 109 112 115 116 115 100 80 65 58 53 54 62 74 64 68 65 63 72 82
191 242 224 257 257 240 232 244 252 209 241 204 161 152 153 159 169 174 174 174 167 166 176 171 168 164 164 151 145 138 133 136 135 133 131 117 103 80 66 68 55 53 59 75 62 64 59 66 81
217 262 259 255 275 250 241 243 220 279 265 135 138 147 159 167 172 171 167 165 162 170 175 173 171 173 169 157 163 153 152 153 152 151 145 140 138 130 95 75 81 76 74 87 83 80 77 75 62
235 252 276 283 281 275 161 272 130 269 136 126 139 155 166 171 170 162 164 167 171 177 177 171 173 175 165 164 167 158 157 154 150 161 171 162 159 158 156 142 107 95 105 139 149 157 129 122 95
279 308 322 304 297 252 115 341 267 238 128 135 150 158 163 171 173 177 177 174 174 173 171 170 172 168 165 166 173 160 159 153 159 168 163 169 169 167 163 160 154 162 144 126 102 88 98 112 100
33 33 319 301 340 284 120 259 283 190 139 149 159 162 165 176 182 185 178 174 168 163 165 173 174 166 167 165 165 149 146 145 151 146 145 172 175 167 158 159 168 155 132 125 117 98 93 94 94
24 330 265 301 322 65 131 240 294 122 148 158 165 169 169 167 180 186 180 174 167 167 164 169 169 165 168 158 147 135 128 128 130 124 139 185 178 171 161 161 150 131 120 117 131 102 129 144 138
221 225 260 267 297 49 48 275 304 232 151 163 171 173 175 180 191 185 175 167 161 158 157 162 160 156 152 142 122 110 104 104 106 129 144 162 172 163 153 151 139 128 118 113 115 115 89 116 142
179 194 251 268 273 82 251 284 296 298 128 167 177 182 187 194 181 161 153 145 145 146 154 160 159 156 151 158 159 155 156 149 144 158 149 165 160 157 154 160 141 140 151 174 156 137 108 69 96
189 217 254 285 297 155 211 288 285 236 213 204 191 189 184 167 142 138 135 139 152 157 165 162 167 162 163 165 165 158 143 136 141 129 119 150 155 163 167 164 161 154 154 144 139 135 132 98 94
215 202 216 231 331 20 133 313 287 275 210 178 171 180 179 178 173 164 155 156 156 165 171 167 165 157 157 145 126 109 92 78 76 59 43 355 154 156 159 168 167 159 157 167 170 157 157 159 108
237 220 197 202 177 274 154 252 272 241 255 222 191 178 183 180 166 164 165 162 164 174 166 150 148 146 145 138 139 140 144 154 180 165 166 73 110 143 144 149 151 151 147 150 172 161 163 160 175
216 203 179 188 178 250 263 188 268 243 240 241 221 196 186 176 165 166 171 172 164 164 158 153 144 145 147 145 150 151 148 146 119 112 113 103 45 132 126 131 138 149 154 157 149 144 148 160 173
167 77 59 61 90 236 230 184 258 228 214 220 213 204 191 171 161 158 157 144 141 147 149 146 144 150 153 154 160 162 154 145 133 137 142 141 155 281 100 132 141 156 164 164 168 162 150 153 157
108 100 38 352 5 242 225 187 243 245 209 200 210 205 183 164 160 155 152 151 156 147 151 145 147 152 157 160 169 168 163 159 158 160 165 164 174 216 241 180 177 180 191 180 168 156 156 163 163
181 149 164 199 214 255 247 220 248 267 211 186 192 173 156 156 159 161 170 169 169 160 155 152 155 156 160 166 176 168 159 159 163 166 164 181 203 212 201 191 193 194 186 180 161 160 177 162 179
152 179 170 146 188 212 254 264 298 -0 34 47 80 137 167 168 162 167 165 165 167 163 162 166 161 158 162 167 162 158 163 163 172 174 159 175 205 213 192 185 188 188 178 173 160 173 190 178 188
144 146 109 134 166 229 259 241 237 246 241 235 184 184 177 161 161 163 163 166 164 163 162 158 157 166 161 160 166 163 169 173 164 156 175 190 206 206 193 196 193 183 174 170 170 180 194 187 209
74 90 116 137 164 168 224 260 235 218 218 197 197 177 172 176 174 175 170 165 151 145 158 163 160 154 153 164 167 165 179 175 159 174 197 204 209 205 209 207 199 196 193 186 185 201 197 202 223
139 152 149 161 217 184 183 255 305 236 180 146 157 180 186 166 161 162 150 141 138 149 163 166 166 162 172 173 171 188 192 177 178 201 215 204 218 217 216 208 205 210 210 200 198 215 214 210 220